Probability
0 0 0 0 0 0 0 0 0 0 0 0 0 0 0 0 0 0 0 0 0 0 0 0 0 0 0 0 0 0 0 0 0 0 0 0 0 0 0 0 0 0 0 0
0 0 0 0 0 0 0 0 0 0 0 0 0 0 0 0 0 0 0 0 0 0 0 0 0 0 0 0 0 0 0 0 0 0 0 0 0 0 0 0 0 0 0 0
0 0 0 0 0 0 0 0 0 0 0 0 0 0 0 0 0 0 0 0 0 0 0 0 0 0 0 0 0 0 0 0 0 0 0 0 0 0 0 0 0 0 0 0
0 0 0 0 0 0 0 0 0 0 0 0 0 0 0 0 0 0 0 0 0 0 0 0 0 0 0 0 0 0 0 0 0 0 0 0 0 0 0 0 0 0 0 0
0 0 0 0 0 0 0 0 0 0 0 0 0 0 0 0 0 0 0 0 0 0 0 0 0 0 0 0 0 0 0 0 0 0 0 0 0 0 0 0 0 0 0 0
0 0 0 0 0 0 0 0 0 0 0 0 0 0 0 0 0 0 0 0 0 0 0 0 0 0 0 0 0 0 0 0 0 0 0 0 0 0 0 0 0 0 0 0
0 0 0 0 0 0 0 0 0 0 0 0 0 0 0 0 0 0 0 0 0 0 0 0 0 0 0 0 0 0 0 0 0 0 0 0 0 0 0 0 0 0 0 0
0 0 0 0 0 0 0 0 0 0 0 0 0 0 0 0 0 0 0 0 0 0 0 0 0 0 0 0 0 0 0 0 0 0 0 0 0 0 0 0 0 0 0 0
0 0 0 0 0 0 0 0 0 0 0 0 0 0 0 0 0 0 0 0 0 0 0 0 0 0 0 0 0 0 0 0 0 0 0 0 0 0 0 0 0 0 0 0
0 0 0 0 0 0 0 0 0 0 0 0 0 0 0 0 0 0 0 0 0 0 0 0 0 0 0 0 0 0 0 0 0 0 0 0 0 0 0 0 0 0 0 0
0 0 0 0 0 0 0 0 0 0 0 0 0 0 0 0 0 0 0 0 0 0 0 0 0 0 0 0 0 0 0 0 0 0 0 0 0 0 0 0 0 0 0 0
0 0 0 0 0 0 0 0 0 0 0 0 0 0 0 0 0 0 0 0 0 0 0 0 0 0 0 0 0 0 0 0 0 0 0 0 0 0 0 0 0 0 0 0
0 0 0 0 0 0 0 0 0 0 0 0 0 0 0 0 0 0 0 0 0 0 0 0 0 0 0 0 0 0 0 0 0 0 0 0 0 0 0 0 0 0 0 0
0 0 0 0 0 0 0 0 0 0 0 0 0 0 0 0 0 0 0 0 0 0 0 0 0 0 0 0 0 0 0 0 0 0 0 0 0 0 0 0 0 0 0 0
0 0 0 0 0 0 0 0 0 0 0 0 0 0 0 0 0 0 0 0 0 0 0 0 0 0 0 0 0 0 0 0 0 0 0 0 0 0 0 0 0 0 0 0
0 0 0 0 0 0 0 0 0 0 0 0 0 0 0 0 0 0 0 0 0 0 0 0 0 0 0 0 0 0 0 0 0 0 0 0 0 0 0 0 0 0 0 0
0 0 0 0 0 0 0 0 0 0 0 0 0 0 0 0 0 0 0 0 0 0 0 0 0 0 0 0 0 0 0 0 0 0 0 0 0 0 0 0 0 0 0 0
0 0 0 0 0 0 0 0 0 0 0 0 0 0 0 0 0 0 0 0 0 0 0 0 0 0 0 0 0 0 0 0 0 0 0 0 0 0 0 0 0 0 0 0
0 0 0 0 0 0 0 0 0 0 0 0 0 0 0 0 0 0 0 0 0 0 0 0 0 0 0 0 0 0 0 0 0 0 0 0 0 0 0 0 0 0 0 0
0 0 0 0 0 0 0 0 0 0 0 0 0 0 0 0 0 0 0 0 0 0 0 0 0 0 0 0 0 0 0 0 0 0 0 0 0 0 0 0 0 0 0 0
0 0 0 0 0 0 0 0 0 0 0 0 0 0 0 0 0 0 0 0 0 0 0 0 0 0 0 0 0 0 0 0 0 0 0 0 0 0 0 0 0 0 0 0
0 0 0 0 0 0 0 0 0 0 0 0 0 0 0 0 0 0 0 0 0 0 0 0 0 0 0 0 0 0 0 0 0 0 0 0 0 0 0 0 0 0 0 0
0 0 0 0 0 0 0 0 0 0 0 0 0 0 0 0 0 0 0 0 0 0 0 0 0 0 0 0 0 0 0 0 0 0 0 0 0 0 0 0 0 0 0 0
0 0 0 0 0 0 0 0 0 0 0 0 0 0 0 0 0 0 0 0 0 0 0 0 0 0 0 0 0 0 0 0 0 0 0 0 0 0 0 0 0 0 0 0
0 0 0 0 0 0 0 0 0 0 0 0 0 0 0 0 0 0 0 0 0 0 0 0 0 0 0 0 0 0 0 0 0 0 0 0 0 0 0 0 0 0 0 0
0 0 0 0 0 0 0 0 0 0 0 0 0 0 0 0 0 0 0 0 0 0 0 0 0 0 0 0 0 0 0 0 0 0 0 0 0 0 0 0 0 0 0 0
0 0 0 0 0 0 0 0 0 0 0 0 0 0 0 0 0 0 0 0 0 0 0 0 0 0 0 0 0 0 0 0 0 0 0 0 0 0 0 0 0 0 0 0
Height
5845 5841 5837 5832 5827 5823 5819 5815 5810 5807 5804 5801 5798 5795 5793 5791 5789 5788 5787 5786 5786 5785 5784 5783 5783 5782 5781 5780 5781 5781 5780 5780 5781 5781 5780 5780 5780 5780 5780 5780 5780 5780 5780 5780
5846 5843 5840 5835 5831 5827 5824 5820 5816 5813 5810 5807 5803 5801 5798 5797 5795 5794 5793 5792 5791 5790 5789 5788 5787 5786 5786 5785 5785 5784 5784 5784 5783 5783 5782 5782 5781 5780 5780 5779 5778 5778 5777 5776
5849 5846 5843 5839 5836 5832 5829 5825 5822 5818 5816 5812 5809 5806 5804 5802 5801 5799 5798 5797 5796 5795 5794 5793 5792 5791 5790 5789 5788 5787 5787 5786 5785 5784 5783 5782 5781 5780 5778 5777 5775 5774 5772 5771
5852 5849 5845 5845 5840 5837 5834 5830 5827 5824 5820 5817 5815 5812 5809 5808 5806 5804 5803 5802 5800 5799 5798 5797 5795 5794 5793 5792 5791 5790 5789 5788 5786 5785 5784 5782 5780 5779 5777 5774 5772 5770 5768 5766
5856 5852 5849 5847 5844 5841 5838 5835 5832 5829 5826 5823 5820 5817 5814 5813 5811 5809 5807 5806 5804 5803 5801 5800 5799 5797 5796 5795 5793 5792 5791 5789 5788 5786 5784 5782 5779 5777 5774 5772 5769 5766 5763 5760
5860 5856 5853 5852 5848 5845 5844 5840 5836 5833 5831 5828 5825 5822 5821 5818 5816 5814 5812 5810 5808 5807 5805 5803 5802 5800 5799 5798 5796 5795 5793 5791 5789 5787 5784 5782 5779 5775 5772 5768 5765 5761 5758 5755
5865 5861 5857 5854 5851 5849 5848 5845 5841 5838 5835 5832 5829 5828 5825 5823 5820 5818 5816 5814 5812 5810 5809 5807 5805 5804 5802 5801 5799 5797 5795 5793 5791 5788 5785 5781 5777 5773 5769 5765 5760 5756 5752 5749
5870 5866 5864 5858 5855 5853 5851 5847 5844 5842 5839 5836 5834 5832 5829 5827 5825 5823 5821 5818 5816 5814 5813 5811 5809 5807 5806 5804 5802 5800 5798 5795 5792 5789 5785 5781 5776 5771 5766 5761 5756 5751 5747 5742
5874 5872 5867 5863 5860 5856 5853 5850 5847 5845 5842 5840 5838 5836 5834 5831 5829 5827 5825 5823 5820 5819 5817 5815 5813 5811 5809 5807 5805 5803 5800 5797 5794 5791 5786 5782 5776 5771 5765 5759 5754 5748 5743 5739
5877 5874 5870 5867 5863 5860 5857 5853 5850 5848 5845 5843 5841 5839 5837 5835 5833 5831 5829 5827 5825 5823 5821 5819 5816 5814 5812 5810 5808 5805 5802 5799 5796 5792 5788 5783 5777 5772 5766 5760 5755 5749 5744 5740
5879 5876 5873 5870 5866 5863 5860 5857 5853 5850 5848 5845 5843 5841 5839 5838 5836 5834 5832 5830 5828 5826 5824 5822 5820 5818 5815 5813 5811 5808 5805 5802 5798 5794 5790 5785 5780 5774 5769 5763 5758 5753 5748 5744
5880 5877 5875 5872 5869 5866 5863 5859 5856 5853 5850 5847 5845 5843 5841 5840 5838 5837 5835 5833 5831 5829 5827 5825 5823 5821 5818 5816 5813 5811 5807 5804 5800 5796 5792 5788 5783 5778 5773 5768 5763 5758 5753 5748
5879 5877 5875 5873 5870 5867 5865 5862 5858 5855 5852 5849 5847 5845 5843 5841 5840 5838 5837 5835 5834 5832 5830 5828 5825 5823 5821 5819 5816 5813 5810 5806 5803 5799 5795 5791 5787 5782 5778 5773 5768 5764 5759 5755
5877 5876 5874 5872 5870 5868 5866 5863 5860 5857 5854 5851 5848 5846 5844 5842 5841 5839 5838 5836 5835 5833 5831 5830 5827 5825 5823 5821 5818 5815 5812 5809 5806 5802 5798 5794 5791 5787 5782 5778 5774 5770 5766 5761
5874 5873 5872 5871 5869 5868 5866 5863 5861 5858 5855 5852 5849 5847 5844 5842 5841 5839 5838 5837 5835 5834 5832 5830 5829 5827 5825 5822 5820 5818 5815 5812 5808 5805 5801 5798 5794 5791 5787 5784 5780 5776 5772 5768
5872 5871 5870 5869 5867 5866 5864 5863 5861 5859 5856 5854 5851 5848 5845 5842 5840 5839 5837 5836 5835 5834 5832 5831 5829 5828 5826 5824 5822 5820 5817 5814 5811 5808 5805 5801 5798 5795 5792 5788 5785 5782 5778 5775
5869 5868 5867 5866 5865 5863 5862 5861 5860 5858 5856 5854 5851 5849 5846 5843 5840 5838 5836 5835 5834 5833 5832 5830 5829 5828 5826 5825 5823 5822 5819 5817 5814 5811 5808 5805 5801 5798 5796 5793 5790 5787 5784 5781
5865 5864 5863 5862 5861 5860 5859 5858 5857 5856 5855 5853 5851 5848 5846 5843 5840 5837 5835 5833 5832 5831 5830 5829 5828 5827 5826 5825 5824 5822 5821 5819 5816 5813 5810 5807 5805 5802 5799 5796 5794 5791 5788 5786
5860 5860 5859 5858 5857 5857 5856 5855 5854 5853 5852 5851 5849 5847 5845 5842 5840 5837 5834 5832 5830 5829 5828 5827 5827 5827 5826 5825 5824 5823 5821 5820 5818 5815 5812 5810 5807 5805 5802 5799 5797 5794 5792 5789
5854 5854 5854 5853 5853 5852 5852 5851 5850 5849 5849 5848 5847 5845 5843 5841 5839 5836 5833 5831 5829 5828 5827 5826 5826 5826 5825 5825 5824 5823 5821 5820 5819 5817 5814 5812 5809 5807 5805 5802 5800 5797 5795 5793
5847 5847 5847 5847 5847 5847 5846 5846 5845 5845 5844 5843 5843 5842 5841 5839 5837 5835 5833 5830 5828 5827 5826 5825 5825 5825 5824 5824 5823 5822 5821 5820 5819 5817 5815 5813 5811 5809 5807 5804 5802 5800 5798 5796
5838 5839 5840 5840 5840 5840 5840 5840 5840 5840 5839 5838 5838 5837 5836 5835 5834 5833 5831 5829 5827 5826 5825 5824 5824 5824 5823 5822 5822 5821 5820 5819 5818 5817 5816 5814 5812 5810 5808 5806 5804 5802 5800 5798
5829 5830 5830 5831 5832 5832 5833 5833 5833 5833 5833 5833 5832 5832 5831 5830 5830 5829 5828 5827 5825 5824 5822 5822 5822 5821 5821 5820 5820 5819 5819 5818 5817 5816 5815 5814 5812 5811 5809 5807 5805 5803 5801 5800
5817 5819 5820 5821 5822 5823 5824 5824 5825 5826 5826 5826 5826 5826 5825 5825 5824 5823 5823 5822 5822 5820 5819 5819 5818 5818 5818 5818 5817 5817 5816 5815 5815 5814 5813 5812 5811 5810 5809 5807 5805 5804 5802 5800
5803 5806 5808 5809 5810 5812 5813 5814 5815 5817 5817 5818 5818 5818 5818 5818 5817 5817 5817 5816 5816 5816 5815 5815 5814 5814 5814 5814 5814 5813 5813 5813 5812 5811 5811 5810 5809 5808 5807 5806 5805 5803 5802 5801
5788 5791 5793 5795 5797 5799 5801 5802 5804 5806 5807 5808 5809 5810 5810 5810 5810 5809 5809 5809 5809 5810 5810 5809 5809 5809 5809 5809 5809 5809 5809 5809 5809 5808 5808 5807 5806 5806 5805 5804 5803 5802 5801 5800
5771 5774 5777 5780 5782 5785 5787 5789 5791 5793 5795 5796 5798 5799 5800 5801 5801 5801 5801 5801 5802 5802 5802 5803 5803 5803 5803 5803 5803 5803 5803 5804 5804 5804 5803 5803 5803 5802 5802 5801 5800 5800 5799 5798
Wind_Speed
17 18 19 22 25 26 27 26 25 23 23 22 22 21 21 21 20 19 19 19 19 19 20 20 19 20 20 18 16 14 13 12 9 8 7 6 6 6 6 6 8 10 12 14
19 19 19 21 24 26 26 26 26 25 24 23 23 23 23 23 23 22 21 21 21 20 20 19 19 18 17 16 14 13 12 11 10 8 8 7 7 8 9 10 12 13 15 16
19 17 17 21 22 23 24 25 25 24 23 23 23 24 25 24 24 23 22 20 20 19 18 18 17 16 15 14 13 11 10 9 8 8 7 8 9 10 11 13 15 16 18 19
20 19 20 18 19 20 21 22 23 23 22 22 21 22 24 23 23 22 22 22 21 19 18 18 16 15 14 14 13 12 11 11 10 10 9 10 10 11 12 13 15 17 18 19
22 20 17 16 16 17 18 19 20 20 20 20 20 22 23 22 21 21 21 20 19 18 18 17 17 16 15 15 15 14 14 14 14 13 13 13 13 13 14 14 16 17 18 19
24 21 19 17 15 15 15 17 18 18 18 19 19 21 21 20 20 19 19 19 18 18 18 17 17 17 17 17 17 17 16 16 16 16 16 16 16 16 16 16 17 17 18 19
26 22 20 19 16 15 15 16 16 16 16 17 18 19 19 19 18 18 18 18 18 17 17 17 18 18 18 18 18 18 19 19 19 19 19 20 20 20 20 19 19 19 19 18
25 23 20 20 17 15 15 15 15 14 15 15 16 16 17 17 17 17 17 17 17 17 18 18 18 18 18 18 19 19 19 19 20 21 21 23 23 23 23 22 21 20 18 17
22 22 22 21 19 17 16 16 15 14 14 14 14 14 15 15 15 15 16 16 16 16 17 17 17 17 17 18 18 19 19 20 21 22 23 25 25 25 25 23 22 20 18 16
18 19 20 20 19 19 17 17 16 15 14 13 13 12 13 14 14 14 14 14 14 15 15 16 16 16 16 17 17 18 19 20 21 22 24 26 26 26 26 25 24 22 19 16
15 16 17 18 18 18 18 18 17 16 15 13 12 12 12 12 13 13 13 13 13 13 14 14 15 15 16 16 17 18 19 20 21 22 24 25 26 26 26 26 25 24 21 19
11 13 14 16 16 17 18 18 18 17 15 14 12 11 11 11 11 11 11 11 11 11 12 13 14 15 15 16 17 18 19 20 20 22 23 25 26 26 26 26 26 26 25 23
10 11 12 13 13 14 15 17 18 17 16 14 13 12 10 10 10 9 9 9 9 10 10 11 12 14 15 16 17 17 19 20 20 21 22 23 25 25 26 26 26 26 26 26
10 10 10 11 12 12 13 14 16 16 16 15 14 12 11 10 9 9 8 8 8 8 9 10 11 13 14 15 16 17 18 19 20 20 20 21 23 24 25 25 25 26 26 26
11 10 10 11 11 11 12 12 13 14 15 15 15 13 12 11 10 9 8 7 7 7 8 9 10 11 12 14 15 16 17 19 19 20 20 20 21 22 23 23 24 24 24 24
12 11 11 11 11 11 11 11 11 13 14 14 15 15 14 12 11 10 8 8 7 7 7 7 8 9 10 12 13 14 16 18 19 19 19 19 19 19 20 21 21 21 22 22
13 12 12 12 12 12 12 12 11 12 13 14 15 16 16 15 13 11 10 9 8 7 7 7 6 6 8 9 10 12 14 16 18 19 18 18 18 17 18 18 19 19 19 19
15 15 14 13 13 13 13 13 13 12 12 13 14 15 16 17 15 13 12 11 9 8 7 6 5 4 5 7 8 9 11 14 16 18 18 17 17 16 16 16 16 17 17 17
19 18 17 16 15 15 14 14 14 14 14 14 14 15 16 18 18 16 14 12 9 8 7 6 4 3 4 5 6 8 9 11 14 16 17 17 16 16 15 15 15 15 15 15
24 22 21 19 18 17 16 16 16 16 16 16 15 16 16 17 18 18 16 13 11 9 7 6 6 5 4 4 5 7 8 9 11 14 15 16 16 15 15 14 14 14 14 14
29 27 25 23 22 20 19 19 18 18 18 18 18 17 17 17 17 17 17 14 11 9 7 7 7 7 6 5 5 6 7 8 9 11 13 14 15 15 14 14 13 13 13 13
33 31 29 28 26 24 22 21 21 20 20 20 19 19 19 18 17 16 16 14 12 11 9 9 9 9 9 7 7 7 7 7 7 8 10 11 12 13 14 14 13 12 12 12
37 36 34 32 31 29 27 25 24 22 22 21 21 21 20 19 19 17 16 15 13 12 11 10 11 11 11 11 10 9 8 8 7 8 8 9 10 11 12 12 12 12 11 11
42 40 39 38 36 34 32 31 29 26 25 24 23 23 22 22 21 20 18 17 15 14 13 13 13 14 14 13 12 11 10 9 9 8 8 9 9 10 10 11 11 11 11 10
47 45 44 43 41 39 37 35 33 31 29 28 26 25 25 24 24 23 21 20 18 16 15 15 15 15 16 16 15 15 14 13 12 11 10 9 9 9 10 10 10 10 10 9
52 51 49 47 46 44 41 39 37 35 34 32 30 29 28 27 27 27 25 24 22 20 18 17 17 17 17 18 18 18 17 16 15 14 13 12 12 11 10 10 10 10 10 9
56 55 54 52 51 48 46 44 41 39 38 36 35 33 31 31 30 30 29 28 26 24 23 21 20 19 19 19 20 20 21 20 19 18 17 16 15 15 14 13 12 11 11 11
Wind_Direction
23 25 27 35 40 40 40 42 44 45 45 49 56 60 59 58 61 62 63 65 66 67 67 66 64 66 68 69 69 69 69 67 60 54 47 33 13 356 339 319 304 295 288 284
31 31 32 40 43 43 42 43 46 48 52 54 57 59 59 58 59 61 62 63 65 66 66 66 65 65 65 63 61 59 55 49 40 29 16 2 346 331 319 308 302 296 292 288
35 36 37 41 41 43 43 44 45 47 50 53 58 59 60 60 61 61 62 63 63 63 63 63 63 63 62 61 57 52 45 36 26 14 359 343 330 321 315 310 305 300 296 293
37 37 39 38 39 41 42 45 46 46 48 52 57 59 59 57 57 57 57 57 57 57 57 56 55 55 55 54 51 47 42 36 27 18 8 356 344 333 323 315 309 303 298 294
35 38 40 39 38 39 41 43 43 43 46 51 55 57 56 55 54 53 52 51 50 50 51 50 50 51 51 50 49 46 43 37 31 23 15 5 355 344 334 324 315 308 303 298
35 38 39 38 38 38 38 42 42 43 46 49 51 52 52 51 51 51 49 48 47 47 47 48 49 50 51 51 50 47 43 37 31 24 17 9 1 352 344 335 326 317 308 301
33 36 37 37 38 37 36 36 37 39 41 43 46 49 49 49 50 50 49 49 48 48 49 51 52 53 52 50 48 45 41 36 31 25 18 11 4 358 351 344 337 328 318 308
31 33 33 34 35 34 31 29 29 31 33 36 39 41 43 44 46 47 47 47 48 49 50 50 50 50 49 47 45 41 36 31 26 21 15 10 5 0 355 351 346 340 333 325
28 31 31 32 32 31 28 25 24 23 25 27 29 31 35 38 40 43 45 46 47 47 46 46 45 45 44 42 39 35 30 26 22 18 14 12 9 7 5 3 1 358 355 351
23 26 27 28 27 27 24 22 20 19 19 19 19 21 25 29 33 38 42 44 44 44 43 42 41 40 38 36 33 29 24 21 18 17 17 16 14 15 16 17 17 18 17 16
15 19 21 23 23 23 22 20 18 17 17 14 11 12 15 20 25 29 34 37 39 39 39 38 36 34 31 28 25 23 21 19 18 18 20 21 21 22 24 27 28 30 31 30
359 5 9 13 16 18 18 18 16 14 13 12 8 7 8 9 14 20 26 30 32 32 34 33 31 28 25 22 21 22 21 19 19 21 23 26 27 29 31 33 35 37 39 41
340 348 355 0 3 8 12 14 14 13 11 8 6 3 2 2 2 7 14 20 24 25 27 28 27 24 21 19 19 21 20 20 20 22 26 29 30 32 35 37 40 41 43 44
319 327 335 342 349 354 360 5 8 10 10 8 4 360 356 355 356 358 1 6 11 15 18 20 21 20 18 18 19 20 21 21 21 23 27 30 33 35 37 39 41 44 46 47
307 310 316 322 328 334 342 351 359 3 6 6 5 360 353 349 346 345 346 350 357 2 4 8 12 12 13 15 18 20 22 22 22 23 26 30 34 35 37 40 41 43 45 46
303 303 304 307 312 317 321 329 340 350 356 359 0 360 357 351 347 342 336 334 338 345 347 352 358 2 6 11 14 18 21 22 23 24 25 28 33 35 36 39 41 43 44 46
299 301 301 301 302 304 308 311 317 327 339 347 351 355 355 353 347 342 338 331 326 323 325 327 336 347 357 5 11 14 17 20 22 23 23 26 30 33 35 37 39 42 44 45
293 296 296 296 295 296 299 302 305 309 317 328 339 346 349 352 349 343 336 331 323 312 306 305 312 326 343 354 2 7 11 15 17 20 22 23 25 28 31 34 36 38 40 41
287 290 292 291 290 287 288 292 297 300 305 312 321 331 340 346 348 346 341 335 324 306 292 277 277 293 319 337 347 355 1 6 11 15 19 20 21 24 26 29 31 33 35 36
283 285 287 288 287 284 281 282 287 291 296 301 308 316 325 333 340 343 342 337 328 314 291 267 259 264 283 312 330 339 347 355 2 8 14 18 19 20 22 24 27 29 31 32
279 281 282 284 285 283 279 277 278 282 287 292 297 303 310 317 326 333 337 335 328 317 297 272 261 260 266 286 308 322 329 338 348 358 6 12 16 18 20 21 23 25 27 29
274 277 278 279 281 281 279 276 275 276 279 283 288 294 298 303 309 316 323 326 322 313 298 280 269 266 267 272 285 300 311 318 328 341 352 1 8 13 16 18 19 20 22 24
269 271 273 275 276 277 277 275 273 272 274 276 279 284 289 292 295 300 305 310 312 306 295 281 273 270 269 271 275 282 291 296 303 316 330 341 352 360 5 10 13 15 16 18
265 266 268 270 271 273 273 272 271 269 269 270 273 276 279 283 285 287 290 293 296 298 290 280 274 270 269 270 273 275 278 280 284 293 306 318 328 339 348 355 0 5 9 11
262 263 264 265 267 269 269 269 269 267 266 266 267 269 271 274 276 278 279 281 282 283 283 279 273 270 267 266 268 271 272 272 274 279 286 295 306 316 326 334 341 347 351 357
260 261 261 262 263 264 265 266 266 265 263 262 262 263 265 267 269 271 271 272 273 272 271 272 270 268 266 265 265 266 267 268 269 273 277 281 286 294 303 311 319 325 330 332
259 259 260 260 260 261 262 262 262 262 261 259 258 258 259 261 263 265 266 267 267 266 265 264 264 265 264 264 263 263 264 265 267 269 272 275 277 280 284 290 296 302 308 312